Weather History for K0A9 - June, 2014

Change the Weather History Date:

Sunday, June 8, 2014

  Actual Average (KTRI) Record (KTRI)
Temperature  
Mean Temperature 73 °F 70 °F  
Max Temperature 82 °F 82 °F 94 °F (2008)
Min Temperature 64 °F 58 °F 42 °F (1977)
Degree Days  
Heating Degree Days 0 1  
Month to date heating degree days 8  
Since 1 June heating degree days 8  
Since 1 July heating degree days 4371  
Cooling Degree Days 8 5  
Month to date cooling degree days 38  
Year to date cooling degree days 111  
Since 1 June cooling degree days 38  
Growing Degree Days 23 (Base 50)    
Moisture  
Dew Point 62 °F    
Average Humidity 70    
Maximum Humidity 94    
Minimum Humidity 48    
Precipitation  
Precipitation 0.00 in 0.13 in 1.73 in (1978)
Month to date precipitation 1.04  
Year to date precipitation 18.43  
Snow  
Snow 0.00 in 0.00 in - ()
Month to date snowfall 0.0  
Since 1 June snowfall 0.0  
Since 1 July snowfall 13.3  
Snow Depth -    
Sea Level Pressure  
Sea Level Pressure 29.93 in    
Wind  
Wind Speed 4 mph (West)    
Max Wind Speed 14 mph    
Max Gust Speed -    
Visibility 10 miles    
Events      
T = Trace of Precipitation, MM = Missing Value Source: NWS Daily Summary

Daily Weather History Graph

Daily Weather History Graph

Search for Another Location

Airport or City:

Trip Planner

Search our weather history database for the weather conditions in past years. The results will help you decide how hot, cold, wet, or windy it might be!

Date:

Astronomy

Jun. 08, 2014 Rise Set
Actual Time 6:10 AM EDT 8:45 PM EDT
Civil Twilight 5:40 AM EDT 9:15 PM EDT
Nautical Twilight 5:02 AM EDT 9:52 PM EDT
Astronomical Twilight 4:21 AM EDT 10:34 PM EDT
Moon 4:09 PM EDT (6/8) 2:55 AM EDT (6/8)
Length of Visible Light 15h 34m
Length of Day
14h 34m
Waxing Gibbous, 77% of the Moon is Illuminated
Jun 8
Waxing Gibbous
Jun 13
Full
Jun 19
Last Quarter
Jun 27
New
Jul 5
First Quarter

Hourly Weather History & Observations

Time (EDT) Temp. Heat Index Dew Point Humidity Pressure Visibility Wind Dir Wind Speed Gust Speed Precip Events Conditions
12:15 AM 68.0 °F - 62.6 °F 83% 29.98 in 10.0 mi Calm Calm - N/A   Partly Cloudy
12:35 AM 66.2 °F - 62.6 °F 88% 29.98 in 10.0 mi Calm Calm - N/A   Scattered Clouds
12:55 AM 66.2 °F - 62.6 °F 88% 29.97 in 10.0 mi East 3.5 mph - N/A   Mostly Cloudy
1:15 AM 66.2 °F - 62.6 °F 88% 29.97 in 10.0 mi ENE 4.6 mph - N/A   Partly Cloudy
1:35 AM 66.2 °F - 62.6 °F 88% 29.97 in 10.0 mi East 3.5 mph - N/A   Partly Cloudy
1:55 AM 64.4 °F - 62.6 °F 94% 29.96 in 10.0 mi Calm Calm - N/A   Partly Cloudy
2:15 AM 64.4 °F - 60.8 °F 88% 29.95 in 10.0 mi Calm Calm - N/A   Partly Cloudy
2:35 AM 66.2 °F - 60.8 °F 83% 29.95 in 10.0 mi East 4.6 mph - N/A   Scattered Clouds
2:55 AM 66.2 °F - 62.6 °F 88% 29.95 in 10.0 mi East 4.6 mph - N/A   Overcast
3:15 AM 66.2 °F - 62.6 °F 88% 29.94 in 10.0 mi Calm Calm - N/A   Overcast
3:35 AM 66.2 °F - 62.6 °F 88% 29.94 in 10.0 mi ENE 3.5 mph - N/A   Overcast
3:55 AM 64.4 °F - 62.6 °F 94% 29.94 in 10.0 mi Calm Calm - N/A   Scattered Clouds
4:15 AM 64.4 °F - 60.8 °F 88% 29.93 in 10.0 mi ENE 3.5 mph - N/A   Clear
4:55 AM 64.4 °F - 60.8 °F 88% 29.93 in 9.0 mi ENE 3.5 mph - N/A   Partly Cloudy
5:15 AM 64.4 °F - 60.8 °F 88% 29.93 in 10.0 mi Calm Calm - N/A   Scattered Clouds
5:35 AM 64.4 °F - 60.8 °F 88% 29.92 in 10.0 mi Calm Calm - N/A   Mostly Cloudy
5:55 AM 64.4 °F - 60.8 °F 88% 29.93 in 10.0 mi Calm Calm - N/A   Scattered Clouds
6:15 AM 64.4 °F - 60.8 °F 88% 29.93 in 10.0 mi ENE 3.5 mph - N/A   Mostly Cloudy
6:35 AM 64.4 °F - 60.8 °F 88% 29.93 in 10.0 mi NE 3.5 mph - N/A   Mostly Cloudy
6:55 AM 64.4 °F - 60.8 °F 88% 29.94 in 10.0 mi Calm Calm - N/A   Partly Cloudy
7:15 AM 66.2 °F - 62.6 °F 88% 29.94 in 10.0 mi Calm Calm - N/A   Mostly Cloudy
7:35 AM 66.2 °F - 62.6 °F 88% 29.95 in 10.0 mi Calm Calm - N/A   Mostly Cloudy
7:55 AM 66.2 °F - 62.6 °F 88% 29.95 in 10.0 mi Calm Calm - N/A   Partly Cloudy
8:15 AM 69.8 °F - 62.6 °F 78% 29.95 in 10.0 mi Calm Calm - N/A   Clear
8:35 AM 71.6 °F - 62.6 °F 73% 29.95 in 10.0 mi Calm Calm - N/A   Clear
8:55 AM 71.6 °F - 64.4 °F 78% 29.94 in 10.0 mi East 4.6 mph - N/A   Clear
9:15 AM 73.4 °F - 64.4 °F 73% 29.94 in 10.0 mi East 4.6 mph - N/A   Clear
9:35 AM 75.2 °F - 64.4 °F 69% 29.94 in 9.0 mi Calm Calm - N/A   Clear
9:55 AM 77.0 °F - 64.4 °F 65% 29.93 in 10.0 mi Calm Calm - N/A   Clear
10:15 AM 78.8 °F - 64.4 °F 61% 29.92 in 10.0 mi ESE 3.5 mph - N/A   Clear
10:35 AM 78.8 °F - 64.4 °F 61% 29.92 in 10.0 mi SSW 4.6 mph - N/A   Scattered Clouds
10:55 AM 80.6 °F 82.3 °F 64.4 °F 58% 29.93 in 10.0 mi SW 6.9 mph - N/A   Mostly Cloudy
11:15 AM 80.6 °F 82.3 °F 64.4 °F 58% 29.93 in 10.0 mi SSE 3.5 mph - N/A   Mostly Cloudy
11:35 AM 75.2 °F - 66.2 °F 73% 29.93 in 10.0 mi NW 4.6 mph - N/A   Light Drizzle
11:55 AM 78.8 °F - 66.2 °F 65% 29.94 in 10.0 mi Variable 6.9 mph - N/A   Scattered Clouds
12:15 PM 78.8 °F - 66.2 °F 65% 29.94 in 10.0 mi Calm Calm - N/A   Partly Cloudy
12:35 PM 78.8 °F - 66.2 °F 65% 29.94 in 10.0 mi West 6.9 mph - N/A   Scattered Clouds
12:55 PM 80.6 °F 82.7 °F 66.2 °F 61% 29.92 in 10.0 mi SW 10.4 mph - N/A   Scattered Clouds
1:35 PM 82.4 °F 83.4 °F 62.6 °F 51% 29.91 in 10.0 mi West 11.5 mph - N/A   Partly Cloudy
1:55 PM 82.4 °F 83.4 °F 62.6 °F 51% 29.91 in 10.0 mi WNW 12.7 mph - N/A   Partly Cloudy
2:15 PM 82.4 °F 82.9 °F 60.8 °F 48% 29.91 in 10.0 mi SW 13.8 mph - N/A   Scattered Clouds
2:35 PM 82.4 °F 82.9 °F 60.8 °F 48% 29.91 in 10.0 mi West 13.8 mph - N/A   Scattered Clouds
2:55 PM 82.4 °F 82.9 °F 60.8 °F 48% 29.91 in 10.0 mi WSW 12.7 mph - N/A   Scattered Clouds
3:15 PM 82.4 °F 83.4 °F 62.6 °F 51% 29.91 in 10.0 mi West 12.7 mph - N/A   Scattered Clouds
3:35 PM 82.4 °F 83.4 °F 62.6 °F 51% 29.91 in 10.0 mi West 9.2 mph - N/A   Partly Cloudy
3:55 PM 82.4 °F 82.9 °F 60.8 °F 48% 29.91 in 10.0 mi WSW 13.8 mph - N/A   Scattered Clouds
4:15 PM 82.4 °F 82.9 °F 60.8 °F 48% 29.92 in 10.0 mi WSW 13.8 mph - N/A   Partly Cloudy
4:35 PM 82.4 °F 82.9 °F 60.8 °F 48% 29.91 in 10.0 mi WSW 10.4 mph - N/A   Clear
4:55 PM 80.6 °F 81.5 °F 60.8 °F 51% 29.91 in 10.0 mi WSW 12.7 mph - N/A   Scattered Clouds
5:15 PM 80.6 °F 81.8 °F 62.6 °F 54% 29.91 in 10.0 mi WSW 10.4 mph - N/A   Clear
5:35 PM 80.6 °F 81.5 °F 60.8 °F 51% 29.91 in 10.0 mi WSW 11.5 mph - N/A   Clear
5:55 PM 80.6 °F 81.8 °F 62.6 °F 54% 29.90 in 10.0 mi West 9.2 mph - N/A   Partly Cloudy
6:15 PM 80.6 °F 81.5 °F 60.8 °F 51% 29.90 in 10.0 mi WSW 11.5 mph - N/A   Partly Cloudy
6:35 PM 78.8 °F - 60.8 °F 54% 29.90 in 10.0 mi WNW 10.4 mph - N/A   Partly Cloudy
6:55 PM 78.8 °F - 62.6 °F 57% 29.90 in 10.0 mi WNW 6.9 mph - N/A   Partly Cloudy
7:15 PM 78.8 °F - 60.8 °F 54% 29.90 in 10.0 mi West 6.9 mph - N/A   Clear
7:35 PM 78.8 °F - 60.8 °F 54% 29.91 in 10.0 mi Variable 5.8 mph - N/A   Partly Cloudy
7:55 PM 77.0 °F - 60.8 °F 57% 29.90 in 10.0 mi Variable 4.6 mph - N/A   Partly Cloudy
8:15 PM 75.2 °F - 60.8 °F 61% 29.90 in 10.0 mi West 5.8 mph - N/A   Partly Cloudy
8:35 PM 75.2 °F - 60.8 °F 61% 29.91 in 10.0 mi WNW 5.8 mph - N/A   Scattered Clouds
8:55 PM 73.4 °F - 60.8 °F 65% 29.91 in 10.0 mi West 5.8 mph - N/A   Scattered Clouds
9:15 PM 71.6 °F - 62.6 °F 73% 29.92 in 10.0 mi Calm Calm - N/A   Mostly Cloudy
9:35 PM 69.8 °F - 62.6 °F 78% 29.93 in 10.0 mi Calm Calm - N/A   Overcast
9:55 PM 69.8 °F - 62.6 °F 78% 29.94 in 10.0 mi NW 3.5 mph - N/A   Overcast
10:15 PM 69.8 °F - 62.6 °F 78% 29.95 in 10.0 mi NW 3.5 mph - N/A   Overcast
10:35 PM 69.8 °F - 60.8 °F 73% 29.96 in 10.0 mi West 6.9 mph - N/A   Scattered Clouds
10:55 PM 71.6 °F - 60.8 °F 69% 29.96 in 10.0 mi WNW 8.1 mph - N/A   Partly Cloudy
11:15 PM 69.8 °F - 59.0 °F 68% 29.96 in 10.0 mi WNW 8.1 mph - N/A   Clear
11:35 PM 69.8 °F - 59.0 °F 68% 29.97 in 10.0 mi Variable 5.8 mph - N/A   Partly Cloudy
11:55 PM 68.0 °F - 59.0 °F 73% 29.98 in 10.0 mi WNW 8.1 mph - N/A   Mostly Cloudy